Location: Beuerbach
(48.1459°N, 10.9174°E)
Time: 09:59:35
(UTC+00:00)

SJ 16-02 - Pass Details

Date: 23 May 2024
Orbit: 594 x 606 km, 75.0° (Epoch: 15 June)

Event Time Altitude Azimuth Distance (km) Brightness Sun altitude
Exits shadow 01:40:26 18° 186° (S) 1,461 2.8 -13.7°
Maximum altitude 01:43:30 66° 108° (ESE) 655 1.5 -13.4°
Drops below altitude 10° 01:47:47 10° 26° (NNE) 1,940 5.3 -13.0°
Sets 01:50:01 0° 24° (NNE) 2,846 6.5 -12.8°
